This is the latest recevied weather packets stored in our database for station/object K7AEL. If no packets are shown the sender has not sent any weather packets the latest 10 day(s).
| Time | Temp. | Humidity | Pressure | Rain* | Wind** | Luminosity | Snow |
|---|---|---|---|---|---|---|---|
| 1777732766 | 21.11° C | 41% | 1015.6 hPa | 0 mm | - | 36 W/m² | - |
| 1777732463 | 20.56° C | 41% | 1015.5 hPa | 0 mm | - | 36 W/m² | - |
| 1777732161 | 20.56° C | 41% | 1015.6 hPa | 0 mm | - | 35 W/m² | - |
| 1777731857 | 20° C | 42% | 1015.6 hPa | 0 mm | - | 34 W/m² | - |
| 1777731555 | 20° C | 42% | 1015.6 hPa | 0 mm | - | 34 W/m² | - |
| 1777731252 | 20° C | 42% | 1015.4 hPa | 0 mm | - | 33 W/m² | - |
| 1777730950 | 19.44° C | 42% | 1015.5 hPa | 0 mm | - | 31 W/m² | - |
| 1777730648 | 19.44° C | 41% | 1015.4 hPa | 0 mm | - | 31 W/m² | - |
| 1777730343 | 18.89° C | 42% | 1015.4 hPa | 0 mm | - | 30 W/m² | - |
| 1777730040 | 18.89° C | 41% | 1015.3 hPa | 0 mm | - | 29 W/m² | - |
| 1777729433 | 18.33° C | 41% | 1015 hPa | 0 mm | - | 27 W/m² | - |
| 1777729129 | 17.78° C | 41% | 1015 hPa | 0 mm | - | 25 W/m² | - |
| 1777728826 | 17.78° C | 41% | 1015 hPa | 0 mm | - | 25 W/m² | - |
| 1777728523 | 17.78° C | 42% | 1014.8 hPa | 0 mm | - | 23 W/m² | - |
| 1777728221 | 17.78° C | 41% | 1014.9 hPa | 0 mm | - | 22 W/m² | - |
| 1777727918 | 17.22° C | 41% | 1015 hPa | 0 mm | - | 20 W/m² | - |
| 1777727615 | 16.67° C | 41% | 1014.8 hPa | 0 mm | - | 18 W/m² | - |
| 1777727311 | 16.67° C | 41% | 1014.9 hPa | 0 mm | - | 16 W/m² | - |
| 1777725495 | 16.11° C | 37% | 1014.3 hPa | 0 mm | - | 3 W/m² | - |
| 1777724889 | 16.67° C | 37% | 1014.4 hPa | 0 mm | - | 1 W/m² | - |
| 1777724283 | 17.22° C | 36% | 1014.2 hPa | 0 mm | - | 0 W/m² | - |
| 1777723981 | 17.22° C | 35% | 1014.2 hPa | 0 mm | - | 0 W/m² | - |
| 1777723374 | 17.22° C | 35% | 1014 hPa | 0 mm | - | 0 W/m² | - |
| 1777723072 | 17.22° C | 35% | 1014.2 hPa | 0 mm | - | 0 W/m² | - |
| 1777722768 | 17.22° C | 34% | 1014.1 hPa | 0 mm | - | 0 W/m² | - |
* Rain latest hour (hover to see other rain measurements)
** Current wind speed in m/s (hover to see current wind gust speed)